Location: Black Swamp Observatory
(41.3920°N, 84.1250°W)
Time: 04:00:57
(UTC-05:00)

Courier 1B - Visible Passes

Search period start: 28 January 2022 00:00
Search period end: 07 February 2022 00:00
Orbit: 962 x 1209 km, 28.3° (Epoch: 28 January)

Date Brightness Start Highest point End Pass type
(mag) Time Alt. Az. Time Alt. Az. Time Alt. Az.
28 Jan 9.0 19:55:58 10° SW 20:02:30 30° S 20:04:49 26° SSE visible
28 Jan 9.9 21:49:36 10° WSW 21:51:43 17° SW 21:51:43 17° SW visible
29 Jan 9.2 19:02:28 10° SW 19:08:46 28° S 19:14:26 13° ESE visible
29 Jan 9.1 20:55:42 10° WSW 21:01:20 29° SSW 21:01:20 29° SSW visible
30 Jan 9.4 18:09:06 10° SW 18:15:03 26° SSE 18:21:11 10° ESE visible
30 Jan 9.0 20:01:57 10° WSW 20:08:28 31° S 20:10:58 26° SSE visible
30 Jan 10.0 21:56:06 10° WSW 21:57:52 15° SW 21:57:52 15° SW visible
31 Jan 9.1 19:08:18 10° SW 19:14:43 30° S 19:20:37 12° ESE visible
31 Jan 9.3 21:02:03 10° WSW 21:07:31 25° SSW 21:07:31 25° SSW visible
01 Feb 9.3 18:14:47 10° SW 18:20:59 29° S 18:27:25 10° ESE visible
01 Feb 9.2 20:08:10 10° WSW 20:14:26 28° S 20:17:12 23° SSE visible
01 Feb 10.2 22:03:12 10° WSW 22:04:07 12° SW 22:04:07 12° SW visible
02 Feb 9.2 19:14:24 10° WSW 19:20:42 29° S 19:26:56 11° SE visible
02 Feb 9.6 21:08:48 10° WSW 21:13:50 20° SSW 21:13:50 20° SSW visible
03 Feb 9.3 18:20:46 10° WSW 18:26:58 30° S 18:33:25 10° SE visible
03 Feb 9.5 20:14:41 10° WSW 20:20:21 23° SSW 20:23:37 17° SSE visible
04 Feb 9.5 19:20:46 10° WSW 19:26:39 25° SSW 19:32:43 10° SE visible
04 Feb 10.0 21:16:27 10° SW 21:19:52 13° SSW 21:20:22 13° SSW visible
05 Feb 9.4 18:27:01 10° WSW 18:32:57 27° S 18:39:09 10° SE visible
05 Feb 9.9 20:21:46 10° WSW 20:26:13 17° SSW 20:30:17 11° SSE visible
06 Feb 9.8 19:27:32 10° WSW 19:32:34 20° SSW 19:37:45 10° SSE visible
